Location: Bocchiglicro
(39.4167°N, 16.7500°E)
Time: 01:21:23
(UTC+00:00)

Daily predictions for brighter satellites

Satellite Brightness Start Highest point End
(mag) Time Altitude Azimuth Time Altitude Azimuth Time Altitude Azimuth
Cosmos 1709 Rocket 4.2 00:05:05 47° WSW 00:06:02 51° WNW 00:12:02 10° N
Cosmos 1400 Rocket 3.2 00:05:24 10° N 00:09:10 62° NE 00:09:10 62° NE
Cosmos 2227 Rocket 3.7 00:06:53 10° NW 00:10:10 22° W 00:10:10 22° W
STARLINK-1304 4.2 00:14:04 50° ENE 00:14:04 50° ENE 00:17:17 10° NE
SL-16 R/B 3.0 00:10:23 28° SE 00:13:32 56° ENE 00:19:33 10° N
Cosmos 1241 Rocket 4.4 00:13:21 56° S 00:14:32 69° ESE 00:20:43 10° NE
Cosmos 2084 Rocket 3.9 00:11:18 10° NW 00:14:58 57° NW 00:14:58 57° NW
NOSS 2-1 (E) 4.4 00:17:38 34° ENE 00:17:38 34° ENE 00:19:54 10° NE
Cosmos 2298 Rocket 4.0 00:13:22 10° NNW 00:18:41 80° ENE 00:19:50 56° SSE
IRAS Rocket 4.1 00:18:05 63° SSW 00:18:49 72° WSW 00:24:21 10° NNW
STARLINK-48 4.2 00:19:05 48° NNW 00:19:05 48° NNW 00:22:38 10° NE
STARLINK-1278 3.8 00:19:20 71° NE 00:19:20 71° NE 00:23:08 10° NE
Cosmos 489 Rocket 4.5 00:18:08 53° SW 00:19:32 70° WNW 00:25:49 10° NNE
STARLINK-1280 3.8 00:21:06 74° NE 00:21:06 74° NE 00:24:59 10° NE
SL-16 R/B 2.5 00:22:44 48° SSE 00:23:53 57° ESE 00:29:26 10° NNE
STARLINK-1286 3.6 00:29:54 78° NNE 00:29:54 78° NNE 00:33:53 10° NE
MOZ.5/SAFIR/RUBIN 5/SL-8 3.6 00:29:16 73° S 00:29:43 89° W 00:34:23 10° NNW
USA 215 3.2 00:28:06 34° SSE 00:31:04 63° SW 00:37:33 10° NW
Cosmos 2285 Rocket 4.4 00:25:27 10° NNW 00:31:21 42° W 00:31:55 41° WSW
STARLINK-1281 3.6 00:33:11 79° N 00:33:11 79° N 00:37:12 10° NE
Cosmos 1953 Rocket 4.4 00:33:32 38° WNW 00:33:32 38° WNW 00:37:30 10° N
CZ-2D R/B 2.0 00:28:41 10° NNE 00:33:55 80° ESE 00:35:02 56° S
Cosmos-2242 4.3 00:31:30 10° NNW 00:34:23 28° WNW 00:34:23 28° WNW
STARLINK-1310 3.6 00:37:58 74° NW 00:38:02 74° NW 00:42:10 10° NE
Cosmos 2221 3.2 00:33:59 10° N 00:38:15 52° E 00:39:27 39° SE
CZ-4C R/B 3.4 00:38:34 76° S 00:38:54 84° W 00:43:22 10° NNW
GP-B 3.3 00:38:30 10° N 00:42:52 55° W 00:42:59 55° W
STARLINK-1319 3.7 00:42:44 65° WNW 00:42:59 67° NW 00:47:08 10° NE
Cosmos 1315 Rocket 3.2 00:41:11 10° N 00:45:04 58° E 00:45:45 49° ESE
Cosmos 1842 Rocket 3.6 00:40:46 10° N 00:45:14 79° E 00:46:05 57° SSE
Cosmos 2360 Rocket 3.2 00:43:57 26° SSE 00:46:11 36° ESE 00:51:17 10° NE
STARLINK-1277 3.8 00:47:31 56° WNW 00:47:59 61° NW 00:52:06 10° NE
STARLINK-30 4.5 00:49:01 33° ESE 00:49:01 33° ESE 00:51:44 10° ENE
STARLINK-72 4.4 00:50:31 34° ESE 00:50:31 34° ESE 00:53:14 10° ENE
Cosmos 2058 3.3 00:50:48 46° SE 00:51:41 57° E 00:55:49 10° NNE
IKONOS-2 4.4 00:51:35 66° SSW 00:52:06 78° WSW 00:56:24 10° NNW
STARLINK-1276 4.0 00:52:19 49° WNW 00:53:00 56° NW 00:57:05 10° NE
STARLINK-59 4.1 00:53:44 39° ESE 00:53:44 39° ESE 00:56:39 10° ENE
Cosmos 2074 Rocket 4.2 00:51:22 41° SW 00:53:21 57° W 00:59:32 10° N
Cosmos 1980 Rocket 3.7 00:51:50 20° W 00:53:59 25° NW 00:58:36 10° N
STARLINK-56 4.1 00:55:16 40° ESE 00:55:16 40° ESE 00:58:18 10° ENE
Shenzhou-11 Module 4.1 00:56:40 22° NE 00:56:40 22° NE 00:57:51 10° ENE
STARLINK-73 4.0 00:56:50 42° ESE 00:56:50 42° ESE 00:59:57 10° ENE
STARLINK-1305 4.2 00:57:04 42° WNW 00:57:57 51° NW 01:02:01 10° NE
STARLINK-38 3.9 00:58:23 44° ESE 00:58:23 44° ESE 01:01:36 10° ENE
STARLINK-1306 4.3 00:57:24 39° WNW 00:58:25 49° NW 01:02:31 10° NE
STARLINK-65 3.8 00:59:58 46° ESE 00:59:58 46° ESE 01:03:14 10° ENE
Cosmos 2333 Rocket 4.4 00:56:23 10° SE 00:59:48 17° E 01:03:13 10° ENE
STARLINK-68 3.6 01:00:25 52° SE 01:00:25 52° SE 01:03:51 10° ENE
STARLINK-1012 4.5 01:00:08 35° SE 01:00:22 35° SE 01:04:10 10° ENE
STARLINK-53 3.6 01:01:36 51° SE 01:01:36 51° SE 01:04:59 10° ENE
CZ-4B R/B 3.5 00:57:29 10° N 01:02:45 78° WNW 01:04:34 42° SSW
STARLINK-1262 4.3 01:01:53 37° W 01:02:59 47° NW 01:07:00 10° NE
STARLINK-50 3.8 01:03:01 49° SE 01:03:03 49° SE 01:06:45 10° ENE
Cosmos 2219 Rocket 4.4 01:00:49 10° SE 01:04:11 17° E 01:07:34 10° ENE
IRIDIUM 106 4.4 01:03:41 33° S 01:06:04 76° E 01:11:17 10° N
STARLINK-71 3.7 01:06:33 54° SSE 01:06:57 57° SE 01:10:55 10° ENE
STARLINK-1300 4.5 01:06:40 32° W 01:07:59 43° NW 01:11:57 10° NE
STARLINK-1026 4.2 01:09:41 40° SSE 01:10:16 43° SE 01:14:12 10° ENE
Cosmos 2341 Rocket 4.2 01:07:42 24° S 01:11:41 68° E 01:17:58 10° NNE
ADEOS II 2.2 01:06:46 10° NNE 01:12:01 69° ESE 01:14:40 30° S
UNK 4.1 01:11:40 41° WSW 01:12:12 43° W 01:16:34 10° NNW
NOSS 2-1 (C) 4.3 01:12:05 27° WNW 01:12:34 28° NW 01:15:39 10° NNE
Cosmos 2263 Rocket 2.2 01:08:16 10° NNW 01:13:43 55° WSW 01:15:58 33° SSW
STARLINK-1013 4.0 01:14:29 42° SSE 01:15:15 48° SE 01:19:15 10° ENE
IRS-1D 3.5 01:10:00 10° NNE 01:15:17 86° WNW 01:17:31 35° SSW
AQUA 4.1 01:12:14 10° N 01:16:53 54° WNW 01:18:24 38° SW
NOSS 2-1 (D) 4.5 01:16:50 23° WNW 01:17:30 25° NW 01:20:29 10° N
SL-4 R/B 2.5 01:12:43 10° NW 01:17:32 74° NE 01:22:07 10° ESE
USA 229 DEB 3.8 01:12:28 10° NW 01:19:49 74° WSW 01:27:27 10° SSE
USA 229 3.8 01:12:34 10° NW 01:19:55 74° WSW 01:27:34 10° SSE
STARLINK-1009 3.9 01:19:16 43° S 01:20:12 53° SE 01:24:15 10° ENE
STARLINK-25 3.0 01:20:21 67° SSW 01:20:44 79° SE 01:24:11 10° NE
NPP 4.2 01:15:41 10° N 01:20:47 44° WNW 01:22:54 30° WSW
NOSS 3-1 (C) 4.1 01:13:02 10° NW 01:20:48 68° WSW 01:29:32 10° SSE
ARIANE 5 R/B 3.2 01:16:54 10° NNE 01:21:45 48° E 01:25:02 19° SSE
Cosmos 1892 2.7 01:21:53 50° SW 01:22:32 59° W 01:26:18 10° N
STARLINK-1015 3.8 01:24:02 42° SSW 01:25:09 59° SE 01:29:14 10° ENE
IRS-1C 4.2 01:22:30 10° NNE 01:27:52 78° ESE 01:31:06 25° S
NOSS 3-1 (A) 4.1 01:21:11 10° NW 01:29:00 87° WSW 01:37:51 10° SSE
STARLINK-24 3.4 01:28:48 42° SW 01:30:04 86° NW 01:34:06 10° NE
BREEZE-M DEB (TANK) 4.4 01:28:34 10° NNW 01:30:06 15° NNE 01:31:56 10° ENE
STARLINK-1016 3.7 01:28:49 40° SSW 01:30:07 66° SE 01:34:14 10° NE
SL-8 Rocket 4.2 01:26:50 18° S 01:31:38 72° E 01:37:53 10° N
Cosmos 2322 Rocket 2.7 01:29:42 28° WSW 01:32:20 47° WNW 01:37:46 10° NNE
Cosmos 1869 3.9 01:29:03 10° NNW 01:32:36 35° W 01:33:01 34° WSW
In-Cosmos 22 Rocket 4.4 01:31:02 30° SW 01:33:38 53° WNW 01:39:00 10° N
STARLINK-1008 3.6 01:33:37 38° SSW 01:35:06 73° SE 01:39:14 10° NE
Cosmos 2218 Rocket 4.4 01:30:27 14° S 01:35:55 65° E 01:42:16 10° NNE
STARLINK-1014 3.5 01:38:25 35° SW 01:40:04 81° SE 01:44:12 10° NE
STARLINK-81 3.3 01:38:56 37° WSW 01:40:12 72° NW 01:43:50 10° NE
Cosmos 1076 Rocket 4.2 01:39:51 30° WSW 01:41:19 39° WNW 01:45:27 10° N
STARLINK-54 3.5 01:40:39 34° WSW 01:42:01 62° NW 01:45:36 10° NE
Resurs 1-4 Rocket 3.5 01:38:18 10° NNW 01:42:29 24° WNW 01:44:54 18° WSW
Cosmos 2151 3.0 01:40:31 24° S 01:43:01 85° E 01:47:20 10° N
COBE Rocket 4.2 01:38:20 10° SSE 01:43:21 75° ENE 01:48:31 10° N
STARLINK-77 3.4 01:42:03 34° WSW 01:43:27 67° NW 01:47:04 10° NE
Lacrosse 5 rocket 3.2 01:41:59 14° SSE 01:44:12 21° ESE 01:47:13 10° ENE
H-2A R/B 3.4 01:40:37 10° SE 01:44:46 42° ENE 01:49:00 10° N
STARLINK-1025 3.5 01:43:11 32° SW 01:45:02 89° SSE 01:49:13 10° NE
Cosmos 1766 Rocket 4.0 01:41:52 16° S 01:45:12 58° E 01:49:27 10° NNE
Cosmos 1125 Rocket 4.5 01:43:06 10° NW 01:47:26 27° W 01:48:54 24° SW
Okean 3 Rocket 3.7 01:44:43 19° S 01:48:00 76° E 01:52:33 10° N
STARLINK-79 3.5 01:46:45 30° WSW 01:48:21 60° NW 01:51:57 10° NE
STARLINK-1017 3.6 01:47:56 29° SW 01:50:00 84° NW 01:54:10 10° NE
STARLINK-78 3.6 01:48:20 28° WSW 01:50:00 57° NW 01:53:35 10° NE
Cosmos 1408 3.1 01:49:31 30° SW 01:50:47 43° W 01:54:19 10° N
STARLINK-52 3.7 01:47:58 10° NW 01:51:08 55° NE 01:54:16 10° ESE
STARLINK-57 3.7 01:49:58 26° WSW 01:51:43 52° NW 01:55:15 10° NE
STARLINK-49 3.7 01:51:26 26° WSW 01:53:14 53° NW 01:56:47 10° NE
Spot 4 Rocket 4.2 01:48:14 10° NNE 01:53:23 72° ESE 01:57:52 14° S
GEOS 3 Rocket 3.6 01:49:00 10° SSE 01:54:02 57° WSW 01:59:14 10° NW
STARLINK-27 3.8 01:53:02 25° WSW 01:54:54 52° NW 01:58:27 10° NE
STARLINK-1023 3.6 01:52:43 26° WSW 01:54:58 76° NW 01:59:07 10° NE
STARLINK-74 3.8 01:54:35 23° WSW 01:56:30 50° NW 02:00:04 10° NE
Cosmos 1825 2.3 01:55:27 26° SSW 01:57:20 57° W 02:01:04 10° N
SL-16 R/B 3.7 01:55:28 19° WSW 01:57:28 22° W 02:02:05 10° NW
STARLINK-39 3.9 01:56:10 22° WSW 01:58:09 48° NW 02:01:42 10° NE
SL-19 R/B 4.2 01:54:42 10° N 01:58:51 71° WNW 02:01:02 23° SSW
SL-08 R/B 3.2 01:55:01 12° S 01:59:15 64° WSW 02:03:50 10° NNW
STARLINK-31 3.9 01:57:45 21° W 01:59:49 46° NW 02:03:20 10° NE
STARLINK-1007 3.7 01:57:32 23° WSW 02:00:00 70° NW 02:04:08 10° NE
STARLINK-69 4.1 01:59:20 19° W 02:01:29 41° NW 02:04:55 10° NE
Meteor 2-12 Rocket 4.4 01:57:17 13° S 02:02:50 87° W 02:08:56 10° N
STARLINK-21 4.1 02:00:55 19° W 02:03:07 43° NW 02:06:36 10° NE
Cosmos 1538 Rocket 4.0 01:59:22 17° SSW 02:03:31 88° WNW 02:08:56 10° NNE
Cosmos 1339 Rocket 4.4 01:57:28 10° N 02:03:36 80° W 02:09:47 10° S
STARLINK-1444 3.2 02:05:01 28° S 02:05:01 28° S 02:06:35 10° SSE
STARLINK-1452 3.3 02:05:41 27° S 02:05:41 27° S 02:07:12 10° SSE
STARLINK-45 4.3 02:02:35 17° W 02:04:55 38° NNW 02:08:21 10° NE
STARLINK-1048 3.8 02:02:18 21° WSW 02:04:58 63° NW 02:09:05 10° NE
STARLINK-1392 3.7 02:06:38 22° S 02:06:38 22° S 02:07:51 10° SSE
STARLINK-1399 3.6 02:06:39 23° S 02:06:39 23° S 02:07:56 10° SSE
STARLINK-1393 3.6 02:06:41 23° S 02:06:41 23° S 02:07:57 10° SSE
STARLINK-1394 3.6 02:06:42 23° S 02:06:42 23° S 02:07:59 10° SSE
STARLINK-1395 3.7 02:06:49 22° S 02:06:49 22° S 02:08:02 10° SSE
STARLINK-1397 3.6 02:06:44 23° S 02:06:44 23° S 02:08:03 10° SSE
STARLINK-1414 3.6 02:06:47 23° S 02:06:47 23° S 02:08:03 10° SSE
STARLINK-1396 3.6 02:06:45 23° S 02:06:45 23° S 02:08:03 10° SSE
STARLINK-1408 3.7 02:06:52 22° S 02:06:52 22° S 02:08:06 10° SSE
STARLINK-1404 3.5 02:06:49 24° S 02:06:49 24° S 02:08:09 10° SSE
STARLINK-1416 3.6 02:06:51 23° S 02:06:51 23° S 02:08:09 10° SSE
STARLINK-1415 3.5 02:06:49 24° S 02:06:49 24° S 02:08:11 10° SSE
STARLINK-1406 3.7 02:06:58 22° S 02:06:58 22° S 02:08:11 10° SSE
STARLINK-1450 3.5 02:06:51 25° S 02:06:51 25° S 02:08:15 10° SSE
STARLINK-1401 3.5 02:06:52 24° S 02:06:52 24° S 02:08:15 10° SSE
STARLINK-1417 3.5 02:06:55 24° S 02:06:55 24° S 02:08:19 10° SSE
STARLINK-1402 3.5 02:06:57 24° S 02:06:57 24° S 02:08:20 10° SSE
STARLINK-1413 3.5 02:06:56 25° S 02:06:56 25° S 02:08:20 10° SSE
STARLINK-1419 3.5 02:06:59 24° S 02:06:59 24° S 02:08:20 10° SSE
STARLINK-1422 3.5 02:07:03 24° S 02:07:03 24° S 02:08:26 10° SSE
STARLINK-1453 3.4 02:07:02 25° S 02:07:02 25° S 02:08:28 10° SSE
STARLINK-1398 3.3 02:07:00 26° S 02:07:00 26° S 02:08:31 10° SSE
STARLINK-1420 3.4 02:07:05 25° S 02:07:05 25° S 02:08:31 10° SSE
STARLINK-1440 3.4 02:07:07 25° S 02:07:07 25° S 02:08:34 10° SSE
STARLINK-1460 3.4 02:07:07 25° S 02:07:07 25° S 02:08:34 10° SSE
STARLINK-1436 (VISORSAT) 3.3 02:07:03 27° S 02:07:03 27° S 02:08:37 10° SSE
STARLINK-1410 3.5 02:07:13 25° S 02:07:13 25° S 02:08:38 10° SSE
STARLINK-1423 3.5 02:07:15 24° S 02:07:15 24° S 02:08:38 10° SSE
STARLINK-1421 3.5 02:07:15 24° S 02:07:15 24° S 02:08:38 10° SSE
STARLINK-1400 3.4 02:07:13 25° S 02:07:13 25° S 02:08:39 10° SSE
STARLINK-1454 3.4 02:07:14 25° S 02:07:14 25° S 02:08:41 10° SSE
STARLINK-1458 3.4 02:07:17 25° S 02:07:17 25° S 02:08:43 10° SSE
STARLINK-1445 3.4 02:07:17 26° S 02:07:17 26° S 02:08:46 10° SSE
STARLINK-1405 3.6 02:07:28 23° S 02:07:28 23° S 02:08:46 10° SSE
STARLINK-1407 3.4 02:07:20 25° S 02:07:20 25° S 02:08:47 10° SSE
STARLINK-1446 3.4 02:07:19 26° S 02:07:19 26° S 02:08:48 10° SSE
STARLINK-1370 3.4 02:07:23 25° S 02:07:23 25° S 02:08:50 10° SSE
STARLINK-1439 3.6 02:07:31 23° S 02:07:31 23° S 02:08:50 10° SSE
STARLINK-1456 3.4 02:07:25 25° S 02:07:25 25° S 02:08:51 10° SSE
STARLINK-1409 3.4 02:07:26 25° S 02:07:26 25° S 02:08:52 10° SSE
STARLINK-1451 3.4 02:07:25 25° S 02:07:25 25° S 02:08:52 10° SSE
STARLINK-1457 3.4 02:07:25 25° S 02:07:25 25° S 02:08:52 10° SSE
STARLINK-1447 3.4 02:07:24 26° S 02:07:24 26° S 02:08:53 10° SSE
STARLINK-1455 3.4 02:07:26 25° S 02:07:26 25° S 02:08:54 10° SSE
STARLINK-1437 3.4 02:07:27 25° S 02:07:27 25° S 02:08:55 10° SSE
STARLINK-1441 3.4 02:07:26 26° S 02:07:26 26° S 02:08:56 10° SSE
STARLINK-1443 3.3 02:07:27 27° S 02:07:27 27° S 02:09:00 10° SSE
STARLINK-1418 3.4 02:07:31 26° S 02:07:31 26° S 02:09:00 10° SSE
STARLINK-1351 3.4 02:07:31 26° S 02:07:31 26° S 02:09:00 10° SSE
STARLINK-1403 3.4 02:07:31 26° S 02:07:31 26° S 02:09:01 10° SSE
STARLINK-1434 3.3 02:07:30 26° S 02:07:30 26° S 02:09:02 10° SSE
STARLINK-1442 3.3 02:07:31 26° S 02:07:31 26° S 02:09:02 10° SSE
STARLINK-1448 3.3 02:07:33 26° S 02:07:33 26° S 02:09:04 10° SSE
STARLINK-1433 3.4 02:07:35 26° S 02:07:35 26° S 02:09:04 10° SSE
STARLINK-1449 3.3 02:07:35 26° S 02:07:35 26° S 02:09:07 10° SSE
STARLINK-1438 3.4 02:07:41 25° S 02:07:41 25° S 02:09:09 10° SSE
STARLINK-1411 3.4 02:07:47 26° S 02:07:47 26° S 02:09:17 10° SSE
STARLINK-1412 3.3 02:07:46 26° S 02:07:46 26° S 02:09:18 10° SSE
STARLINK-76 4.2 02:05:36 17° W 02:08:01 39° NW 02:11:28 10° NE
Cosmos 1844 Rocket 2.7 02:02:43 10° NNW 02:08:21 85° ENE 02:13:55 10° SSE
SL-16 R/B 3.8 02:04:36 12° W 02:08:22 22° NW 02:12:40 10° N
STARLINK-70 4.4 02:05:59 16° W 02:08:30 37° NNW 02:11:56 10° NE
STARLINK-23 4.3 02:07:11 16° W 02:09:40 38° NNW 02:13:05 10° NE
STARLINK-1049 4.0 02:07:06 19° WSW 02:09:57 58° NW 02:14:04 10° NE
STARLINK-32 4.3 02:08:37 16° W 02:11:08 36° NNW 02:14:29 10° NE
COSMOS 2428 3.2 02:06:48 10° S 02:12:22 60° ESE 02:17:57 10° NNE
CZ-4C R/B 3.4 02:09:13 10° SSE 02:12:50 71° ENE 02:16:28 10° N
STARLINK-40 4.4 02:10:18 15° W 02:12:56 36° NNW 02:16:19 10° NE
CZ-2D R/B 4.1 02:10:59 10° NW 02:13:15 13° WNW 02:15:31 10° W
STARLINK-44 4.4 02:11:49 14° W 02:14:31 35° NNW 02:17:53 10° NE
STARLINK-1051 4.1 02:11:51 16° WSW 02:14:55 53° NW 02:19:00 10° NE
STARLINK-60 4.0 02:16:16 10° WNW 02:18:54 24° SW 02:21:32 10° S
Cosmos 1340 4.0 02:15:51 10° SSE 02:19:21 39° E 02:22:53 10° NNE
FALCON 9 DEB 3.6 02:17:01 10° NW 02:20:28 66° NE 02:23:54 10° ESE
BREEZE-M DEB (TANK) 3.3 02:22:47 16° SSW 02:22:47 16° SSW 02:24:28 10° S
Cosmos 2366 rocket 4.2 02:17:32 12° SSW 02:23:18 56° W 02:29:31 10° N
STARLINK-1028 4.4 02:21:25 13° WSW 02:24:55 45° NW 02:28:55 10° NE
STARLINK-1034 4.5 02:23:42 12° SSW 02:27:15 42° SE 02:31:10 10° ENE
Cosmos 2360 Rocket 3.3 02:25:44 12° WSW 02:30:10 31° WNW 02:35:09 10° N
Shenzhou-11 Module 2.4 02:27:53 10° WNW 02:30:15 46° N 02:32:38 10° E
STARLINK-1068 4.3 02:28:29 11° SSW 02:32:12 46° SE 02:36:11 10° ENE
Cosmos 1933 3.3 02:28:55 10° N 02:32:57 76° W 02:36:56 10° S
CZ-2C R/B 3.7 02:29:58 10° NNE 02:34:56 43° E 02:39:48 10° S
Cosmos 1328 Rocket 3.6 02:32:10 10° NNW 02:36:30 63° W 02:40:47 10° S
STARLINK-1027 4.2 02:33:17 11° SSW 02:37:11 51° SE 02:41:12 10° ENE
BREEZE-M DEB (TANK) 3.0 02:35:22 11° SW 02:40:34 60° SSE 02:43:23 10° ENE
STARLINK-1060 4.0 02:38:04 10° SW 02:42:07 57° SE 02:46:11 10° ENE
PSLV R/B 3.8 02:38:21 10° NNE 02:42:32 67° E 02:46:41 10° S
Cosmos 1821 Rocket 4.2 02:36:38 10° S 02:42:59 84° E 02:49:18 10° N
SWARM C 4.5 02:39:46 10° N 02:43:06 88° W 02:46:25 10° S
SWARM A 4.2 02:39:53 10° N 02:43:13 76° W 02:46:31 10° S
Cosmos 2333 Rocket 2.3 02:37:50 10° SW 02:43:25 64° WNW 02:49:04 10° NNE
Meteor 1-28 Rocket 4.4 02:40:57 10° SSW 02:43:58 23° W 02:47:01 10° NW
COSMOS 2441 4.4 02:39:26 10° NNE 02:44:22 87° WNW 02:49:15 10° SSW
Landsat 5 3.8 02:40:40 10° S 02:45:04 54° W 02:49:28 10° NNW
STARLINK-1030 3.9 02:42:59 10° SW 02:47:04 64° SE 02:51:11 10° NE
Cosmos 2219 Rocket 2.3 02:42:00 10° SW 02:47:32 62° WNW 02:53:05 10° NNE
Cosmos 2322 4.4 02:43:43 10° SW 02:49:03 40° WNW 02:54:27 10° N
USA 32 4.1 02:45:31 10° S 02:50:44 88° E 02:56:01 10° N
ADEOS II 4.0 02:48:08 10° NNW 02:51:06 15° WNW 02:54:03 10° W
STARLINK-29 4.0 02:49:05 10° WNW 02:51:44 25° SW 02:54:24 10° S
Cosmos 1727 Rocket 4.2 02:45:47 10° NNW 02:51:46 54° W 02:57:44 10° SSW
STARLINK-1020 3.8 02:47:58 10° SW 02:52:04 71° SE 02:56:12 10° NE
ERS-2 3.5 02:50:45 10° SSW 02:53:33 21° W 02:56:23 10° NW
Cosmos 2228 Rocket 3.8 02:49:21 10° N 02:53:51 62° E 02:58:21 10° SSE
IDEFIX/ARIANE 42P 3.2 02:50:15 10° N 02:55:10 42° WNW 03:00:03 10° SW
Meteor 1-26 Rocket 4.4 02:49:43 10° NNW 02:55:36 72° W 03:01:34 10° S
Cosmos 1782 3.0 02:52:02 10° N 02:56:03 78° E 03:00:01 10° S
